Wind_Speed
19 22 24 26 28 29 30 30 29 29 31 33 35 37 39 39 40 40 40 41 41 42 42 42 41 41 41 41 41 42 42 42 41 41 41 41 41 41 41 41 42 42 42 42
19 20 23 25 26 27 28 29 30 29 29 30 33 35 37 39 40 40 40 40 41 41 41 42 41 41 41 42 42 42 42 42 42 42 42 41 41 41 41 42 42 42 43 43
17 19 21 23 24 26 27 27 29 30 30 30 30 32 34 35 37 38 39 40 40 40 40 40 41 41 42 42 43 43 43 42 43 43 42 42 42 42 42 42 43 43 44 44
16 17 21 21 22 24 26 27 28 29 29 29 30 31 32 32 34 35 37 38 39 39 39 39 39 41 42 42 42 43 43 43 43 43 43 43 42 43 43 44 44 44 45 45
16 18 19 19 21 22 24 26 27 28 29 29 30 30 31 32 33 34 34 35 37 37 38 38 39 40 41 42 42 42 42 42 43 43 43 43 43 43 43 43 43 43 43 44
17 18 19 19 18 21 23 25 25 26 27 28 29 30 31 31 32 33 33 33 34 35 37 38 38 39 40 41 41 41 41 41 41 42 43 43 43 43 43 43 42 42 42 43
16 17 18 19 19 19 22 24 24 25 26 27 28 29 29 30 31 31 31 32 33 34 34 36 36 37 38 39 40 40 40 40 40 41 41 41 41 42 42 42 42 42 42 42
14 15 16 17 18 20 21 22 23 24 26 27 27 28 28 27 27 27 28 29 31 32 33 34 35 35 36 37 38 38 38 39 40 40 40 40 40 41 41 41 42 41 41 41
13 14 15 17 19 20 20 21 22 23 24 26 26 27 27 27 26 26 26 27 29 30 32 33 33 33 34 34 35 36 36 37 37 38 38 39 39 40 40 41 41 41 41 41
13 14 15 16 17 18 19 21 21 22 23 24 24 25 26 27 27 26 26 26 27 28 30 31 32 33 33 33 34 35 36 36 36 37 37 38 38 38 39 39 40 40 40 40
13 14 15 16 16 17 18 20 21 21 22 23 24 24 25 26 26 26 26 27 27 28 29 30 31 32 33 33 33 34 34 35 36 36 36 37 37 37 38 38 39 39 39 39
13 14 15 16 17 16 17 18 20 20 20 21 22 23 24 24 25 26 26 26 26 26 28 29 29 30 31 32 33 33 34 35 35 36 36 37 37 37 37 38 39 39 39 39
13 14 14 15 17 17 16 17 18 19 20 21 21 22 23 24 24 25 25 26 25 25 25 26 27 28 29 30 32 32 33 34 34 35 35 35 36 36 37 38 38 38 38 38
13 14 14 15 15 16 16 16 17 18 19 20 21 22 23 24 24 25 25 25 26 25 25 26 26 27 28 29 30 31 31 32 33 34 34 35 35 35 36 36 36 37 37 37
13 14 14 15 15 16 15 16 16 17 18 20 21 22 23 23 24 24 24 25 25 25 25 26 26 26 27 28 29 30 31 31 32 33 34 34 34 35 35 35 36 36 37 37
13 13 14 15 15 16 16 16 17 17 18 19 20 21 22 22 22 23 24 24 24 25 26 26 26 26 27 27 28 28 29 30 31 32 33 33 34 34 34 34 35 35 36 36
13 13 14 14 15 16 16 17 17 18 18 18 19 20 20 21 22 23 23 24 24 24 26 26 27 27 27 28 28 29 29 30 30 31 32 32 33 33 33 34 34 34 35 35
14 14 14 15 15 16 16 17 18 19 19 19 19 20 20 20 21 22 24 24 25 25 25 26 26 27 27 28 29 29 29 29 30 31 32 32 33 33 34 34 34 35 35 36
15 15 14 15 15 16 17 17 18 18 19 19 20 20 21 21 21 22 23 24 24 25 25 26 26 27 27 27 28 28 29 29 30 31 31 32 33 34 34 34 34 34 35 35
15 15 16 16 17 17 18 18 18 19 20 20 21 22 22 22 22 23 23 24 25 25 25 26 26 26 27 27 28 28 29 29 29 30 31 32 32 33 33 33 34 34 35 35
14 15 17 18 18 18 18 19 19 19 20 20 21 22 22 22 22 23 24 24 25 25 26 26 27 27 27 28 28 28 28 28 29 30 30 31 31 32 32 32 33 34 34 35
15 15 16 17 18 19 19 19 19 19 19 20 20 21 22 22 22 23 24 24 24 25 25 26 27 27 27 27 28 28 28 28 29 29 29 29 30 30 30 31 31 32 33 33
15 15 15 16 17 17 18 18 19 19 19 19 20 20 20 21 22 22 23 23 24 24 24 25 26 26 27 27 28 28 29 29 28 28 28 28 28 29 29 30 30 31 32 32
14 14 14 15 16 16 17 17 18 18 18 19 19 20 20 20 21 21 21 21 22 23 24 25 26 26 27 27 28 28 28 28 28 28 27 28 28 29 29 30 31 31 32 32
15 15 14 15 15 15 16 16 16 17 18 19 19 19 19 19 20 20 21 21 22 22 23 24 25 26 26 26 26 27 27 27 27 28 29 29 29 30 30 31 31 31 32 32
16 15 15 15 15 15 15 15 16 16 17 17 18 19 20 20 20 21 21 22 23 23 24 24 25 25 25 26 26 26 27 27 28 28 29 29 29 30 30 31 31 32 32 32
16 16 16 16 16 16 16 16 16 16 17 17 18 19 20 21 21 22 22 23 24 24 25 24 24 25 25 26 26 26 26 27 27 28 28 29 30 30 30 31 31 32 32 32
Wind_Direction
242 236 232 231 231 230 231 232 233 233 235 236 237 238 239 240 239 238 237 236 237 238 238 239 239 239 239 239 240 240 239 239 239 240 242 243 244 246 246 248 248 248 250 251
244 239 236 233 232 232 231 231 232 233 234 236 239 240 241 241 240 239 237 237 237 238 239 239 239 238 239 239 240 240 240 240 241 241 242 244 245 246 247 249 249 250 251 253
242 239 239 237 234 235 234 231 232 234 234 234 238 240 241 241 240 240 238 238 239 239 239 239 238 238 238 239 239 240 240 240 241 241 243 245 246 246 247 248 249 251 253 254
242 241 241 240 238 236 235 232 232 234 235 236 236 238 241 241 240 240 239 238 238 239 238 238 238 238 239 239 240 240 240 241 241 242 244 246 247 248 248 249 250 252 254 256
247 248 245 243 240 236 235 234 232 231 233 234 235 237 239 239 239 238 238 238 238 238 238 239 239 238 239 240 240 241 241 242 243 244 245 246 247 248 249 250 251 253 254 256
250 250 248 245 242 237 235 235 232 231 232 234 235 236 237 238 238 238 239 239 239 239 239 240 240 240 240 241 242 242 242 243 243 244 246 247 248 249 249 249 251 252 254 255
252 252 250 246 244 237 234 234 235 235 235 236 235 236 237 237 239 240 241 241 240 239 238 239 240 240 241 242 243 243 244 244 245 245 246 246 248 248 249 250 251 252 253 254
250 250 248 244 243 240 238 236 237 238 239 238 238 238 238 237 238 239 240 240 240 239 239 239 240 240 240 241 242 243 244 245 246 246 246 247 247 248 250 252 252 253 254 254
250 247 246 245 245 243 242 241 240 239 239 239 238 239 237 235 236 238 240 239 239 239 239 240 241 242 241 240 241 243 244 245 246 247 247 248 248 250 251 251 252 252 253 254
248 242 244 245 245 245 245 246 244 241 240 240 240 239 237 235 235 237 239 239 238 240 240 240 240 242 243 244 244 244 245 246 246 247 248 249 249 250 250 251 252 253 253 255
251 247 246 247 249 248 249 248 246 245 244 243 244 243 241 239 239 239 240 240 241 242 242 241 241 241 243 244 244 245 246 246 247 248 249 249 250 250 250 251 252 253 254 255
255 251 249 245 247 249 247 246 247 247 246 245 244 244 244 243 243 242 241 241 242 242 242 242 243 243 243 243 245 246 246 247 248 249 250 251 251 252 252 253 253 254 255 256
260 254 251 249 249 249 248 248 248 247 247 247 247 248 246 245 245 244 242 240 240 241 241 242 245 245 244 244 245 246 247 248 249 250 252 253 253 253 254 254 255 255 256 257
264 258 252 251 252 252 252 251 249 249 249 248 248 250 248 246 245 244 242 240 240 240 241 242 244 245 245 245 246 248 249 251 251 252 254 255 254 254 254 254 255 256 257 257
267 261 256 252 253 254 253 251 250 250 249 250 251 251 250 248 245 242 241 241 240 241 242 242 243 245 247 247 248 250 251 252 252 254 255 255 254 254 254 255 255 255 256 257
269 265 259 255 255 255 255 255 253 250 249 249 249 250 250 249 246 243 242 242 242 242 243 244 245 246 247 248 249 250 251 253 255 255 254 254 254 255 255 255 256 256 256 257
270 267 263 259 257 257 259 259 257 256 256 255 252 250 250 250 248 245 243 241 242 244 245 246 246 246 248 250 252 253 254 255 255 255 255 254 255 256 256 256 257 257 257 257
273 268 265 261 261 262 261 261 261 261 262 260 256 253 252 252 249 245 244 244 245 246 247 247 248 249 251 253 254 255 255 256 256 255 254 254 254 256 257 258 258 258 258 259
274 268 266 265 265 265 265 262 262 263 262 260 258 255 254 254 252 250 248 247 247 247 248 249 251 252 255 256 256 256 257 257 256 255 255 254 256 258 259 259 259 259 261 262
280 274 271 270 269 267 265 264 264 264 264 262 261 258 256 254 253 253 253 252 251 251 251 252 253 254 257 259 259 258 258 258 257 257 257 258 258 259 260 260 260 260 262 264
285 280 276 273 271 269 268 267 267 266 266 265 263 260 257 255 254 254 254 253 253 252 252 254 255 256 258 260 261 261 262 261 260 259 259 259 259 260 260 260 261 262 263 264
291 286 283 279 274 270 269 268 268 268 268 267 264 261 258 257 256 255 254 254 254 254 254 254 255 257 260 262 262 261 262 262 262 260 259 260 260 260 260 261 262 263 263 264
298 293 289 285 281 277 273 271 269 270 270 267 265 263 261 259 257 256 255 255 255 255 255 256 258 260 262 263 263 263 263 263 262 261 260 261 262 261 261 262 263 264 265 266
302 299 294 290 285 282 279 275 272 273 272 268 266 264 262 260 258 257 256 256 255 256 258 260 263 264 265 265 264 264 264 264 262 261 260 261 263 263 264 265 265 266 267 269
300 299 297 293 288 284 280 277 276 274 272 269 267 265 262 260 259 258 257 258 258 260 262 263 265 266 266 266 265 265 265 265 264 264 264 264 265 266 266 267 268 268 269 270
298 297 296 294 291 287 283 279 276 275 273 270 268 266 265 263 261 259 260 261 262 263 265 266 267 267 267 266 266 266 266 267 267 267 267 267 267 267 268 269 269 269 270 271
300 298 296 293 290 287 284 282 280 277 275 274 272 269 267 265 263 263 263 264 265 266 266 266 266 267 268 268 267 267 267 268 268 268 268 268 267 267 268 269 269 269 270 271
Height
5491 5494 5497 5500 5505 5509 5513 5518 5523 5527 5531 5536 5539 5544 5548 5552 5556 5561 5566 5571 5576 5581 5586 5591 5595 5600 5604 5609 5613 5618 5622 5627 5631 5635 5639 5642 5646 5649 5652 5655 5658 5661 5664 5667
5487 5490 5492 5495 5499 5504 5508 5512 5516 5520 5525 5528 5531 5535 5540 5543 5547 5552 5557 5562 5567 5571 5576 5581 5585 5590 5595 5599 5603 5608 5612 5617 5621 5625 5629 5633 5636 5639 5643 5646 5648 5651 5654 5657
5483 5485 5487 5490 5495 5498 5502 5506 5511 5514 5518 5521 5525 5528 5531 5535 5539 5543 5548 5553 5558 5562 5566 5571 5576 5580 5585 5589 5593 5598 5602 5606 5611 5615 5619 5622 5626 5629 5633 5635 5638 5641 5644 5646
5479 5481 5483 5489 5490 5493 5496 5499 5503 5507 5511 5514 5518 5521 5524 5527 5531 5535 5540 5544 5548 5553 5557 5561 5566 5570 5575 5579 5583 5588 5592 5596 5600 5604 5608 5612 5615 5618 5621 5624 5627 5630 5632 5635
5475 5476 5478 5483 5485 5488 5491 5494 5497 5500 5504 5507 5511 5514 5517 5520 5524 5527 5531 5535 5539 5544 5548 5552 5556 5560 5565 5569 5573 5577 5581 5586 5589 5593 5597 5601 5604 5607 5610 5613 5616 5618 5621 5623
5471 5472 5475 5479 5480 5482 5486 5488 5491 5494 5497 5500 5504 5507 5511 5513 5516 5519 5523 5527 5531 5535 5539 5543 5547 5551 5555 5559 5563 5567 5571 5575 5579 5582 5586 5589 5593 5596 5599 5602 5605 5607 5609 5611
5467 5468 5470 5473 5475 5478 5482 5483 5485 5488 5490 5493 5496 5500 5503 5506 5509 5512 5515 5519 5522 5526 5530 5534 5538 5541 5545 5549 5553 5557 5561 5564 5568 5572 5575 5579 5582 5585 5588 5591 5594 5596 5598 5600
5464 5465 5469 5469 5471 5473 5475 5477 5479 5482 5484 5487 5490 5493 5496 5499 5502 5504 5507 5510 5514 5518 5522 5525 5529 5533 5536 5540 5544 5548 5551 5554 5558 5561 5565 5568 5571 5574 5577 5580 5582 5585 5587 5589
5461 5463 5463 5464 5465 5467 5469 5471 5474 5476 5479 5481 5484 5486 5489 5492 5495 5498 5500 5503 5506 5510 5514 5517 5520 5524 5527 5531 5534 5537 5541 5544 5547 5551 5554 5557 5560 5563 5566 5568 5571 5573 5576 5578
5457 5458 5459 5460 5461 5463 5464 5467 5469 5471 5473 5475 5478 5480 5483 5486 5489 5491 5494 5496 5499 5503 5506 5509 5512 5515 5518 5521 5524 5528 5531 5534 5537 5540 5543 5546 5549 5552 5554 5557 5560 5562 5565 5567
5453 5455 5455 5456 5457 5459 5460 5462 5463 5465 5467 5469 5472 5474 5477 5480 5482 5485 5487 5490 5493 5496 5498 5501 5504 5507 5510 5513 5516 5519 5522 5524 5527 5530 5533 5536 5538 5541 5544 5546 5549 5551 5554 5556
5450 5451 5452 5453 5453 5455 5456 5457 5459 5460 5462 5464 5466 5468 5471 5473 5476 5478 5481 5483 5486 5488 5491 5494 5496 5499 5501 5504 5507 5510 5513 5515 5518 5521 5523 5526 5528 5531 5533 5536 5538 5540 5543 5545
5446 5447 5448 5448 5449 5450 5451 5453 5454 5455 5457 5459 5460 5462 5465 5467 5469 5471 5474 5476 5479 5481 5484 5486 5489 5491 5493 5496 5498 5501 5504 5506 5509 5511 5513 5516 5518 5521 5523 5526 5527 5529 5532 5534
5442 5443 5444 5444 5445 5446 5447 5448 5449 5450 5452 5453 5455 5457 5458 5460 5463 5465 5467 5470 5472 5474 5477 5479 5481 5483 5485 5488 5490 5492 5495 5497 5499 5501 5504 5506 5508 5510 5513 5515 5518 5519 5521 5523
5438 5439 5439 5440 5441 5442 5443 5444 5445 5445 5447 5448 5449 5450 5452 5454 5456 5459 5461 5463 5465 5468 5470 5472 5474 5476 5478 5480 5482 5484 5486 5488 5490 5492 5494 5496 5498 5500 5502 5505 5507 5509 5511 5512
5435 5435 5435 5436 5436 5437 5438 5439 5440 5441 5442 5443 5444 5445 5446 5448 5450 5452 5454 5456 5459 5461 5463 5465 5467 5469 5470 5472 5474 5476 5477 5479 5481 5482 5484 5486 5488 5490 5492 5494 5496 5498 5499 5501
5431 5431 5431 5432 5432 5433 5434 5434 5435 5436 5436 5437 5438 5439 5441 5442 5444 5446 5448 5450 5452 5454 5456 5458 5460 5461 5463 5464 5466 5467 5469 5470 5472 5473 5475 5477 5479 5480 5482 5483 5485 5487 5488 5490
5426 5426 5427 5427 5428 5428 5429 5429 5430 5430 5430 5431 5432 5433 5435 5436 5437 5439 5441 5443 5445 5447 5449 5450 5452 5454 5455 5456 5458 5459 5460 5461 5462 5464 5465 5467 5469 5470 5472 5473 5474 5476 5477 5479
5422 5422 5422 5423 5423 5423 5423 5424 5424 5424 5425 5425 5426 5427 5428 5429 5431 5432 5434 5436 5438 5440 5442 5443 5445 5446 5447 5448 5449 5450 5451 5452 5453 5454 5456 5457 5459 5460 5461 5462 5464 5465 5466 5467
5418 5418 5418 5418 5418 5418 5418 5418 5418 5419 5419 5419 5420 5421 5422 5423 5424 5426 5428 5430 5431 5433 5434 5436 5437 5439 5439 5440 5441 5442 5443 5444 5444 5445 5446 5448 5449 5450 5451 5452 5453 5455 5456 5457
5414 5413 5413 5413 5412 5412 5412 5412 5413 5413 5413 5413 5413 5414 5415 5416 5418 5419 5421 5422 5424 5425 5427 5428 5429 5431 5432 5432 5433 5434 5434 5435 5436 5436 5437 5438 5439 5440 5441 5442 5443 5444 5445 5446
5410 5409 5408 5407 5407 5407 5407 5407 5407 5407 5407 5407 5408 5408 5409 5410 5411 5412 5414 5415 5416 5418 5419 5420 5421 5422 5423 5424 5424 5425 5425 5426 5427 5427 5428 5429 5430 5430 5431 5432 5433 5434 5435 5435
5405 5404 5403 5402 5402 5401 5401 5401 5401 5401 5401 5401 5402 5402 5403 5403 5404 5406 5407 5408 5409 5410 5411 5412 5413 5414 5414 5415 5416 5416 5417 5417 5418 5418 5419 5420 5420 5421 5422 5423 5423 5424 5424 5425
5401 5400 5399 5398 5397 5396 5396 5396 5395 5395 5395 5395 5395 5396 5396 5397 5398 5398 5399 5400 5401 5402 5403 5404 5405 5405 5406 5406 5407 5407 5407 5408 5408 5409 5410 5411 5411 5412 5412 5413 5414 5414 5414 5415
5397 5396 5395 5394 5393 5392 5391 5390 5390 5390 5389 5389 5389 5390 5390 5390 5391 5392 5392 5393 5394 5395 5396 5396 5396 5397 5397 5397 5398 5398 5399 5399 5399 5400 5401 5401 5402 5402 5403 5403 5404 5404 5404 5404
5393 5392 5391 5389 5388 5387 5386 5385 5385 5384 5384 5383 5383 5383 5384 5384 5384 5385 5385 5386 5387 5387 5388 5388 5388 5389 5389 5389 5389 5390 5390 5390 5390 5391 5391 5392 5392 5393 5393 5393 5394 5394 5394 5394
5389 5387 5386 5384 5383 5382 5381 5380 5379 5379 5378 5378 5377 5377 5377 5377 5377 5378 5378 5379 5379 5379 5380 5380 5380 5381 5381 5381 5381 5381 5381 5381 5381 5381 5382 5382 5382 5383 5383 5383 5383 5384 5384 5384